Probability
0 0 0 0 0 0 0 0 0 0 1 2 2 2 3 3 4 5 12 21 26 26 28 34 40 44 48 53 55 57 58 61 62 61 57 53 45 39 34 33 35 36 34 32
0 0 0 0 0 0 0 0 0 0 0 1 1 2 2 4 3 4 9 18 25 27 30 36 41 44 48 52 54 54 56 59 61 59 56 50 44 38 35 35 35 36 35 34
0 0 0 0 0 0 0 0 0 0 0 0 1 2 3 4 3 3 6 13 22 27 30 35 39 43 46 49 51 52 53 56 58 56 52 47 42 37 36 37 37 36 34 32
0 0 0 0 0 0 0 0 0 0 0 0 1 2 4 4 3 4 6 9 16 24 27 30 33 36 39 41 45 50 52 54 55 54 49 45 40 36 36 38 39 36 31 26
0 0 0 0 0 0 0 0 0 0 0 0 0 1 3 3 3 4 6 7 11 18 23 25 27 27 28 31 37 45 50 52 54 52 48 44 39 35 35 37 36 32 27 23
0 0 0 0 0 0 0 0 0 0 0 0 0 0 1 2 2 4 5 6 8 13 19 22 24 24 24 27 33 39 45 49 50 48 45 42 38 34 32 31 28 25 25 25
0 0 0 0 0 0 0 0 0 0 0 0 0 0 1 1 2 5 6 7 9 13 17 21 24 26 27 31 35 37 42 46 46 43 42 40 38 34 28 25 23 21 22 24
0 0 0 0 0 0 0 0 0 0 0 0 0 0 1 1 3 5 7 9 11 14 17 21 24 26 28 32 35 37 41 45 44 42 41 39 36 32 26 23 21 18 18 18
0 0 0 0 0 0 0 0 0 0 0 0 0 0 1 3 5 5 6 9 12 14 17 19 21 22 25 29 31 33 37 41 40 38 37 36 33 30 26 23 19 16 15 15
0 0 0 0 0 0 0 0 0 0 0 0 0 0 1 3 5 4 4 7 10 13 16 18 18 19 22 24 26 29 32 33 32 31 30 30 30 29 26 20 15 13 13 13
0 0 0 0 0 0 0 0 0 0 1 1 0 0 0 1 3 3 3 4 8 13 17 19 19 19 20 20 21 24 26 26 25 23 23 24 26 27 25 18 14 13 12 11
0 0 0 0 0 0 0 0 0 0 1 1 0 0 0 0 1 2 3 3 7 12 15 17 18 18 18 18 18 19 21 22 20 19 19 20 21 24 22 16 12 11 11 10
0 0 0 0 0 0 0 0 0 0 1 1 0 0 0 1 2 2 3 4 7 10 11 13 14 15 16 17 16 17 18 18 18 18 17 15 15 17 16 13 9 7 7 8
0 0 0 0 0 0 0 0 0 0 0 0 0 0 0 2 3 4 4 5 6 7 9 10 11 14 16 16 15 14 14 15 15 15 13 10 9 11 11 8 5 3 4 4
0 0 0 0 0 0 0 0 0 0 0 0 1 1 1 2 4 6 6 5 5 7 8 9 11 13 15 15 13 12 12 12 13 12 9 6 6 7 7 5 3 2 3 3
0 0 0 0 0 0 0 0 0 0 0 1 2 3 3 3 5 6 6 5 6 7 7 8 10 12 13 13 11 10 11 11 10 9 6 5 5 5 5 4 3 3 4 5
0 0 0 0 0 0 0 0 0 0 0 1 3 4 5 5 7 8 8 7 7 8 8 9 11 12 11 10 9 9 9 8 6 4 3 2 3 3 4 4 4 4 5 5
0 0 0 0 0 0 0 0 0 0 1 3 4 5 5 7 9 11 11 9 8 9 11 12 12 11 9 8 8 8 6 4 2 1 0 0 1 1 3 4 4 4 3 3
0 0 0 0 0 0 0 0 0 0 1 3 5 5 5 5 7 9 11 10 9 10 13 14 11 8 7 7 8 7 5 2 0 0 0 0 0 1 3 3 4 4 3 2
0 0 0 0 0 0 0 0 0 0 1 3 4 4 4 4 4 6 7 8 9 11 13 13 9 6 6 7 8 7 4 1 0 0 0 0 1 2 2 2 4 5 5 3
0 0 0 0 0 0 0 1 1 2 2 2 3 3 3 4 4 4 5 6 7 9 10 9 6 5 6 7 7 6 3 1 0 0 0 1 1 2 2 4 7 7 5 2
0 0 0 0 0 0 0 2 3 4 2 1 1 1 1 3 4 4 4 3 3 5 6 5 4 4 5 6 6 5 2 0 0 0 0 1 2 2 3 6 8 6 2 1
0 0 0 0 0 0 0 1 3 3 1 0 0 0 1 1 2 3 3 2 1 2 3 3 2 3 4 4 5 4 2 1 0 0 0 1 1 2 4 4 4 2 0 0
0 0 0 0 0 0 0 1 2 2 1 0 0 0 1 0 1 1 1 1 1 2 2 1 1 1 2 3 4 3 2 1 0 0 0 0 1 2 3 2 0 0 0 0
0 0 0 0 0 0 0 0 1 1 0 0 0 0 0 0 0 1 1 1 2 2 1 0 1 2 2 2 2 2 1 1 0 0 0 0 0 1 1 0 0 0 0 0
0 0 0 0 0 0 0 0 0 0 0 0 0 0 0 0 1 2 2 2 4 4 2 0 1 2 2 2 1 1 0 0 0 0 0 0 0 0 0 0 0 0 0 0
Wind_Speed
11 12 9 9 9 9 10 10 11 8 4 6 5 4 6 7 6 5 5 6 7 6 7 7 6 6 6 5 5 3 4 4 3 2 2 2 2 2 2 2 2 2 1 1
9 10 8 8 8 8 10 10 10 7 4 4 4 5 6 6 8 6 6 6 6 5 5 6 6 6 6 6 6 4 4 4 3 2 2 1 1 1 2 1 2 2 2 1
9 6 6 7 7 9 9 8 8 8 9 8 6 6 6 4 5 5 5 6 7 7 6 5 5 5 5 5 6 5 5 4 3 3 2 1 1 1 1 1 1 1 1 1
10 8 8 9 8 9 8 7 8 9 11 8 6 6 4 6 5 5 5 4 6 7 7 6 5 5 5 5 5 5 5 4 4 3 2 2 2 1 1 0 1 1 2 2
9 8 9 9 7 7 9 9 9 11 12 11 9 7 4 5 5 6 6 4 5 7 7 7 6 5 5 5 4 5 5 5 4 4 3 3 2 1 0 0 1 2 2 3
10 8 8 7 6 5 8 10 12 11 9 11 10 7 4 3 4 5 6 6 4 5 6 6 5 5 4 4 4 4 5 4 4 4 3 3 3 2 1 1 1 2 2 2
8 5 5 4 6 4 6 7 7 7 6 6 5 3 1 2 3 6 6 6 6 6 6 5 4 4 4 4 4 4 5 4 4 4 4 3 3 3 3 3 2 2 2 2
8 6 5 5 6 6 6 6 6 7 7 8 6 2 3 5 5 7 8 7 5 5 5 4 3 3 3 3 4 4 4 3 4 4 3 3 3 2 2 3 2 2 2 2
9 9 8 7 7 5 7 7 7 8 10 8 4 1 2 5 7 6 6 5 4 4 4 3 3 2 2 3 4 4 4 3 3 3 3 3 3 2 2 2 2 2 1 2
9 12 10 10 7 6 7 6 5 6 7 6 4 3 2 1 3 3 3 3 2 3 4 3 2 2 3 4 4 4 3 3 2 1 2 2 2 2 2 2 2 2 2 2
10 9 11 10 8 10 9 6 5 5 6 6 5 3 2 1 2 3 3 3 3 3 3 3 3 3 4 4 4 3 3 3 2 2 2 1 1 2 2 2 2 2 2 2
9 6 9 11 9 10 10 9 6 5 5 6 4 3 3 3 3 4 3 3 3 3 2 3 3 3 4 4 3 2 2 3 3 2 2 2 1 1 2 2 2 2 2 3
10 6 8 8 6 8 9 10 10 7 5 4 4 3 1 1 3 3 3 3 2 3 2 2 3 3 3 3 2 2 1 1 2 2 2 2 1 1 2 2 3 3 3 3
6 5 6 9 10 12 13 12 11 8 5 5 5 5 2 3 3 3 2 2 2 2 2 2 3 2 2 2 1 1 1 1 1 1 1 1 2 2 3 3 3 3 3 3
6 6 9 12 12 11 11 12 11 8 7 7 6 5 4 3 3 2 3 2 1 2 2 2 2 2 2 1 1 1 1 1 1 1 1 2 2 3 3 3 3 3 3 3
6 7 11 11 10 9 10 10 10 8 7 7 6 5 5 5 5 4 3 2 1 1 1 1 2 2 1 1 1 0 1 1 1 1 2 2 2 2 3 3 3 3 2 3
7 9 10 9 10 8 6 8 8 8 8 7 6 6 5 6 4 2 1 3 3 2 1 1 2 2 1 1 1 1 1 1 1 1 2 2 2 2 3 3 2 2 2 3
7 8 6 8 8 5 4 6 7 7 8 11 10 10 9 7 4 5 4 4 4 3 2 2 2 2 1 1 1 0 1 1 1 1 2 2 2 2 2 2 2 2 2 3
4 4 5 6 7 4 4 8 8 6 5 11 11 10 10 9 4 5 6 6 4 3 3 2 2 2 2 1 1 1 1 1 1 1 2 2 2 2 2 2 2 2 3 3
3 3 4 5 7 5 6 8 6 3 1 10 11 10 10 10 5 4 6 5 4 3 3 2 2 2 2 1 1 1 0 1 1 1 1 1 1 3 3 2 2 3 3 3
4 4 4 6 6 3 8 11 8 4 6 9 9 9 9 8 6 4 4 4 3 3 3 2 2 2 2 1 1 0 0 1 1 1 1 1 1 2 2 2 2 3 3 4
6 6 5 5 5 4 9 9 7 4 6 7 8 7 7 7 5 4 4 3 2 2 2 2 2 2 1 1 1 1 1 1 1 1 1 1 1 3 2 2 3 3 3 3
4 5 5 4 4 4 5 4 3 5 6 7 8 7 6 6 5 4 3 3 1 1 1 2 2 2 2 1 1 1 1 1 1 1 2 2 2 2 2 2 2 2 2 2
5 5 6 6 5 7 6 5 5 6 7 8 8 7 6 5 5 3 3 2 1 1 2 2 2 2 2 1 1 1 0 1 1 1 2 2 2 2 2 1 2 2 2 2
8 7 6 8 7 8 8 10 9 9 8 9 8 7 5 4 4 2 1 1 1 1 2 2 2 2 2 1 1 1 1 1 1 1 2 3 3 2 1 1 1 1 2 1
4 5 5 6 7 8 10 10 10 9 8 8 8 7 4 3 3 2 1 1 1 2 2 2 2 2 2 1 1 1 1 1 1 1 2 2 2 2 1 0 1 2 1 1
Wind_Direction
238 239 240 246 250 264 283 289 285 276 235 243 252 238 214 184 190 194 177 161 160 158 150 139 141 144 146 137 130 135 144 137 144 147 164 177 180 179 170 163 146 150 157 150
250 249 260 267 272 284 283 278 283 296 294 273 255 243 236 200 188 185 175 157 148 135 127 136 149 149 149 147 149 155 159 155 153 153 166 182 194 204 187 173 153 166 164 184
279 286 286 278 282 282 283 291 302 309 300 271 261 252 232 222 191 176 171 152 142 141 136 140 146 153 153 157 165 165 161 160 158 157 155 152 166 250 222 184 176 171 181 202
286 298 296 287 286 287 289 301 305 295 284 279 264 271 232 209 198 173 166 158 140 140 141 148 156 167 158 164 170 163 156 159 159 160 163 189 200 209 251 250 149 202 209 211
291 300 295 289 304 305 298 307 293 284 281 287 270 261 226 197 196 177 169 163 147 147 152 155 158 165 163 174 174 159 152 159 163 173 175 198 212 218 203 81 169 215 217 218
289 293 292 304 314 309 306 302 290 273 267 264 266 268 234 189 195 175 160 138 141 141 142 145 146 150 164 170 167 158 153 163 170 178 181 196 199 196 196 239 238 247 224 211
294 286 284 298 302 308 310 303 293 286 275 274 285 280 352 101 128 145 138 140 140 132 127 133 143 148 155 158 160 159 156 170 174 178 185 190 191 201 212 217 234 252 245 225
319 315 334 330 310 306 300 296 294 302 304 304 307 296 80 78 77 101 106 108 110 113 113 119 121 128 149 154 149 150 149 159 172 178 177 184 196 212 217 219 232 244 259 251
334 320 321 315 313 320 301 294 304 300 291 281 278 140 112 89 84 80 90 98 106 111 116 115 120 128 134 131 130 132 131 144 161 166 170 188 198 216 232 226 241 235 246 248
327 314 316 316 304 282 274 304 321 305 302 301 317 350 6 45 103 104 90 93 92 107 115 117 114 117 122 120 118 120 122 131 141 161 186 200 192 209 214 228 248 254 262 268
333 320 316 314 316 323 320 311 296 297 308 308 308 324 13 57 107 89 83 76 93 94 97 106 114 118 117 117 120 131 140 145 155 174 167 178 204 217 218 238 245 245 255 263
347 328 307 303 313 317 317 320 320 310 304 300 304 307 15 9 70 87 92 74 66 67 77 102 100 100 109 115 124 133 143 150 161 173 167 174 209 220 229 257 259 255 262 263
344 326 310 305 318 329 328 333 333 323 309 302 303 284 117 20 27 51 80 86 95 112 99 91 103 95 98 103 117 126 134 135 143 149 162 170 203 235 247 258 265 258 261 262
313 302 297 299 302 312 315 319 323 321 312 309 307 303 343 10 352 14 34 44 106 130 129 98 92 96 96 115 138 149 141 131 124 129 173 194 230 249 252 254 257 263 263 258
330 303 301 295 291 296 306 312 320 319 315 311 319 336 5 350 343 17 8 9 109 114 104 94 105 99 95 104 135 138 159 161 149 217 242 233 238 245 252 255 257 264 265 264
332 306 301 298 296 299 309 323 330 330 331 333 344 356 18 8 8 29 7 359 21 72 89 89 97 97 81 84 102 144 181 172 171 241 257 254 250 264 268 260 252 255 265 276
312 307 299 300 311 311 319 346 354 350 353 352 356 5 12 348 345 38 40 15 15 13 35 101 107 102 102 112 141 197 195 185 200 238 263 262 257 273 284 281 279 283 284 286
289 302 300 303 311 309 340 13 9 5 15 26 23 14 4 353 11 44 34 32 14 4 50 82 99 106 119 138 151 177 228 230 227 236 253 258 269 289 286 282 295 304 299 290
247 282 298 307 302 298 341 6 6 359 10 29 17 8 6 354 15 39 38 32 27 29 70 92 119 140 145 148 164 175 244 254 211 229 258 267 292 306 304 302 311 305 295 289
265 261 279 297 302 312 342 358 353 327 357 22 6 353 350 348 341 9 19 17 30 48 73 98 124 131 130 138 170 189 233 256 256 259 278 292 314 311 311 322 311 305 296 291
302 287 285 293 289 298 1 0 357 3 354 345 343 338 347 351 343 343 355 15 42 59 87 105 116 114 120 152 167 208 238 261 280 293 297 269 285 291 292 303 292 290 291 291
311 311 308 305 295 316 4 7 15 351 331 329 332 340 347 342 341 351 3 16 34 63 91 105 104 96 105 139 162 154 37 339 320 339 340 332 302 304 331 304 289 286 289 295
320 324 311 309 299 320 350 11 356 334 328 329 331 333 329 330 333 347 6 19 10 59 83 88 95 106 102 112 122 91 27 334 334 356 350 337 326 318 304 297 303 304 299 295
326 331 314 306 315 330 340 357 348 336 329 328 326 327 329 332 332 349 5 11 2 57 95 105 112 111 100 89 87 79 14 345 347 349 342 322 314 307 307 297 301 311 336 355
306 308 305 295 314 325 328 335 332 330 331 327 322 327 332 333 327 343 4 15 40 76 101 110 101 102 108 116 98 90 46 17 4 2 337 312 304 298 305 324 332 327 17 36
297 306 305 302 318 315 311 317 320 322 324 321 323 328 332 331 325 357 13 26 82 95 103 114 123 120 118 111 96 81 75 62 23 335 321 310 310 302 289 324 18 58 131 128